Albany, GA

4:30 PM EDT on June 26, 2017 (GMT -0400)
Southwest Georgia Regional

Weather History for KABY - November, 2014

Change the Weather History Date:

Saturday, November 15, 2014

  Actual Average Record
Temperature  
Mean Temperature 46 °F 59 °F  
Max Temperature 59 °F 72 °F 86 °F (2011)
Min Temperature 33 °F 46 °F 18 °F (1969)
Degree Days  
Heating Degree Days 19 7  
Month to date heating degree days 159 82  
Since 1 July heating degree days 198 132  
Cooling Degree Days 0 1  
Month to date cooling degree days 3 21  
Year to date cooling degree days 2483 2524  
Moisture  
Dew Point 32 °F    
Average Humidity 63    
Maximum Humidity 86    
Minimum Humidity 40    
Precipitation  
Precipitation 0.00 in 0.10 in 2.16 in (2006)
Month to date precipitation 1.30  
Year to date precipitation 42.93  
Sea Level Pressure  
Sea Level Pressure 30.31 in    
Wind  
Wind Speed 5 mph (NE)    
Max Wind Speed 15 mph    
Max Gust Speed 24 mph    
Visibility 9 miles    
Events      
T = Trace of Precipitation, MM = Missing Value Source: NWS Daily Summary

Daily Weather History Graph

Daily Weather History Graph

Search for Another Location

Airport or City:

Trip Planner

Search our weather history database for the weather conditions in past years. The results will help you decide how hot, cold, wet, or windy it might be!

Date:

Astronomy

Nov. 15, 2014 Rise Set
Actual Time 7:04 AM EST 5:37 PM EST
Civil Twilight 6:38 AM EST 6:03 PM EST
Nautical Twilight 6:09 AM EST 6:32 PM EST
Astronomical Twilight 5:40 AM EST 7:01 PM EST
Moon 12:40 AM EST (11/15) 1:37 PM EST (11/15)
Length of Visible Light 11h 24m
Length of Day
10h 33m
Last Quarter, 40% of the Moon is Illuminated
Nov 15
Last Quarter
Nov 22
New
Nov 29
First Quarter
Dec 6
Full
Dec 14
Last Quarter

Hourly Weather History & Observations

Time (EST) Temp. Windchill Dew Point Humidity Pressure Visibility Wind Dir Wind Speed Gust Speed Precip Events Conditions
12:53 AM 36.0 °F 32.1 °F 26.1 °F 67% 30.27 in 9.0 mi NNE 4.6 mph - 0.00 in   Clear
1:53 AM 36.0 °F 33.3 °F 24.1 °F 62% 30.28 in 9.0 mi North 3.5 mph - N/A   Clear
2:53 AM 34.0 °F 29.8 °F 24.1 °F 67% 30.29 in 9.0 mi NNE 4.6 mph - N/A   Clear
3:53 AM 35.1 °F 31.0 °F 23.0 °F 61% 30.30 in 10.0 mi NNE 4.6 mph - 0.00 in   Clear
4:53 AM 33.1 °F 30.0 °F 24.1 °F 70% 30.30 in 9.0 mi North 3.5 mph - 0.00 in   Clear
5:53 AM 33.1 °F 28.7 °F 25.0 °F 72% 30.32 in 7.0 mi NNE 4.6 mph - 0.00 in   Clear
6:53 AM 33.1 °F 28.7 °F 27.0 °F 78% 30.34 in 7.0 mi NE 4.6 mph - 0.00 in   Clear
7:53 AM 36.0 °F 29.0 °F 30.0 °F 79% 30.37 in 7.0 mi NE 9.2 mph - 0.00 in   Clear
8:53 AM 39.9 °F 32.9 °F 28.9 °F 65% 30.39 in 9.0 mi ENE 11.5 mph - N/A   Clear
9:53 AM 45.0 °F 38.5 °F 28.9 °F 53% 30.39 in 10.0 mi ENE 13.8 mph - N/A   Clear
10:53 AM 48.9 °F - 28.9 °F 46% 30.39 in 10.0 mi NE 8.1 mph - N/A   Clear
11:53 AM 52.0 °F - 30.9 °F 45% 30.37 in 10.0 mi East 6.9 mph - N/A   Clear
12:53 PM 55.0 °F - 33.1 °F 43% 30.33 in 10.0 mi East 8.1 mph - N/A   Clear
1:53 PM 55.9 °F - 34.0 °F 44% 30.29 in 10.0 mi Calm Calm - N/A   Clear
2:53 PM 57.9 °F - 34.0 °F 41% 30.28 in 10.0 mi Variable 4.6 mph - N/A   Clear
3:53 PM 57.9 °F - 34.0 °F 41% 30.27 in 10.0 mi East 5.8 mph - N/A   Clear
4:53 PM 57.0 °F - 35.1 °F 44% 30.27 in 10.0 mi ENE 4.6 mph - N/A   Clear
5:53 PM 50.0 °F - 39.9 °F 68% 30.28 in 10.0 mi Calm Calm - N/A   Clear
6:53 PM 46.0 °F - 39.9 °F 79% 30.30 in 9.0 mi Calm Calm - N/A   Clear
7:53 PM 44.1 °F - 39.0 °F 82% 30.30 in 9.0 mi Calm Calm - N/A   Clear
8:53 PM 44.1 °F - 39.0 °F 82% 30.30 in 8.0 mi Calm Calm - N/A   Clear
9:53 PM 43.0 °F - 37.0 °F 80% 30.30 in 8.0 mi Calm Calm - N/A   Clear
10:53 PM 41.0 °F 39.0 °F 37.0 °F 86% 30.29 in 9.0 mi NE 3.5 mph - N/A   Clear
11:53 PM 44.1 °F 42.5 °F 37.9 °F 79% 30.31 in 10.0 mi North 3.5 mph - N/A   Mostly Cloudy